Location: Moscow
(38.8570°N, 84.2291°W)
Time: 17:55:05
(UTC+00:00)

OAO 3 Rocket - Pass Details

Date: 15 November 2025
Orbit: 613 x 661 km, 35.0° (Epoch: 11 December)

Event Time Altitude Azimuth Distance (km) Brightness Sun altitude
Rises 23:23:03 0° 247° (WSW) 2,913 8.5 -11.9°
Reaches altitude 10° 23:25:29 10° 241° (WSW) 1,998 7.0 -12.3°
Maximum altitude 23:29:54 44° 169° (S) 856 3.8 -13.2°
Enters shadow 23:32:57 18° 104° (ESE) 1,514 4.5 -13.8°
